Westerly, RI

4:38 PM EDT on June 25, 2017 (GMT -0400)
Westerly State

Weather History for KWST - July, 2013

Change the Weather History Date:

Thursday, July 18, 2013

  Actual Average (KGON) Record (KGON)
Temperature  
Mean Temperature 82 °F -  
Max Temperature 91 °F 84 °F 95 °F (1991)
Min Temperature 73 °F 64 °F 52 °F (1958)
Cooling Degree Days 17    
Growing Degree Days 32 (Base 50)    
Moisture  
Dew Point 73 °F    
Average Humidity 74    
Maximum Humidity 97    
Minimum Humidity 53    
Precipitation  
Precipitation 0.00 in - - ()
Sea Level Pressure  
Sea Level Pressure 30.00 in    
Wind  
Wind Speed 4 mph (SW)    
Max Wind Speed 10 mph    
Max Gust Speed -    
Visibility 7 miles    
Events      
Averages and records for this station are not official NWS values.
T = Trace of Precipitation, MM = Missing Value Source: NWS Daily Summary

Daily Weather History Graph

Daily Weather History Graph

Search for Another Location

Airport or City:

Trip Planner

Search our weather history database for the weather conditions in past years. The results will help you decide how hot, cold, wet, or windy it might be!

Date:

Astronomy

Jul. 18, 2013 Rise Set
Actual Time 5:29 AM EDT 8:16 PM EDT
Civil Twilight 4:57 AM EDT 8:49 PM EDT
Nautical Twilight 4:16 AM EDT 9:30 PM EDT
Astronomical Twilight 3:29 AM EDT 10:16 PM EDT
Moon 4:10 PM EDT (7/18) 1:18 AM EDT (7/18)
Length of Visible Light 15h 52m
Length of Day
14h 47m
Waxing Gibbous, 77% of the Moon is Illuminated
Jul 18
Waxing Gibbous
Jul 22
Full
Jul 29
Last Quarter
Aug 6
New
Aug 14
First Quarter

Hourly Weather History & Observations

Time (EDT) Temp. Heat Index Dew Point Humidity Pressure Visibility Wind Dir Wind Speed Gust Speed Precip Events Conditions
12:53 AM 75.0 °F - 73.0 °F 94% 30.06 in 6.0 mi WSW 3.5 mph - N/A   Clear
1:53 AM 73.9 °F - 73.0 °F 97% 30.04 in 6.0 mi SW 4.6 mph - N/A   Clear
2:53 AM 73.9 °F - 72.0 °F 93% 30.03 in 7.0 mi Calm Calm - N/A   Clear
3:53 AM 75.0 °F - 72.0 °F 90% 30.01 in 7.0 mi WSW 3.5 mph - N/A   Clear
4:53 AM 73.9 °F - 72.0 °F 93% 30.01 in 8.0 mi WSW 4.6 mph - N/A   Clear
5:53 AM 73.9 °F - 72.0 °F 93% 30.01 in 6.0 mi Calm Calm - N/A   Clear
6:53 AM 75.0 °F - 72.0 °F 90% 30.02 in 7.0 mi WSW 4.6 mph - N/A   Partly Cloudy
7:53 AM 80.1 °F 84.2 °F 73.0 °F 79% 30.02 in 9.0 mi WSW 3.5 mph - N/A   Clear
8:53 AM 86.0 °F 93.8 °F 73.9 °F 67% 30.02 in 10.0 mi WNW 8.1 mph - N/A   Clear
9:53 AM 89.1 °F 98.0 °F 73.9 °F 61% 30.02 in 10.0 mi NNW 4.6 mph - N/A   Clear
10:53 AM 91.0 °F 98.2 °F 72.0 °F 53% 30.01 in 10.0 mi NW 6.9 mph - N/A   Clear
11:53 AM 90.0 °F 99.0 °F 73.9 °F 59% 30.02 in 10.0 mi SW 6.9 mph - N/A   Clear
12:53 PM 90.0 °F 99.0 °F 73.9 °F 59% 30.01 in 9.0 mi SW 6.9 mph - N/A   Clear
1:53 PM 90.0 °F 99.0 °F 73.9 °F 59% 30.01 in 9.0 mi WSW 8.1 mph - N/A   Clear
2:53 PM 88.0 °F 96.5 °F 73.9 °F 63% 29.99 in 9.0 mi WSW 8.1 mph - N/A   Clear
3:53 PM 89.1 °F 99.1 °F 75.0 °F 63% 29.98 in 9.0 mi WSW 5.8 mph - N/A   Clear
4:53 PM 90.0 °F 97.9 °F 73.0 °F 57% 29.97 in 10.0 mi SSW 10.4 mph - N/A   Clear
5:53 PM 89.1 °F 98.0 °F 73.9 °F 61% 29.97 in 0.2 mi WSW 3.5 mph - N/A   Haze
6:22 PM 87.8 °F 95.6 °F 73.4 °F 62% 29.98 in 1.2 mi SSW 6.9 mph - N/A   Haze
6:29 PM 87.8 °F 95.6 °F 73.4 °F 62% 29.98 in 8.0 mi SW 6.9 mph - N/A   Partly Cloudy
6:45 PM 84.2 °F 90.9 °F 73.4 °F 70% 29.98 in 0.2 mi SW 5.8 mph - N/A   Haze
6:53 PM 84.9 °F 91.4 °F 73.0 °F 67% 29.98 in 0.2 mi South 4.6 mph - N/A   Haze
7:09 PM 82.4 °F 88.2 °F 73.4 °F 74% 29.98 in 1.0 mi SSW 4.6 mph - N/A   Haze
7:11 PM 82.4 °F 88.2 °F 73.4 °F 74% 29.98 in 4.0 mi SSW 4.6 mph - N/A   Haze
7:53 PM 82.9 °F 88.8 °F 73.0 °F 72% 29.97 in 8.0 mi SW 5.8 mph - N/A   Clear
8:53 PM 81.0 °F 85.2 °F 72.0 °F 74% 29.98 in 9.0 mi WSW 4.6 mph - N/A   Clear
9:53 PM 78.1 °F - 73.0 °F 84% 29.99 in 6.0 mi SW 3.5 mph - N/A   Haze
10:53 PM 78.1 °F - 73.9 °F 87% 29.99 in 6.0 mi Calm Calm - N/A   Clear
11:53 PM 79.0 °F - 73.9 °F 84% 29.98 in 6.0 mi Calm Calm - N/A   Haze